Location: Marcé
(47.5801°N, 0.3280°W)
Time: 19:46:57
(UTC+01:00)

Tiros 1 despin weight - Pass Details

Date: 06 December 2021
Orbit: 592 x 641 km, 48.2° (Epoch: 21 January)

Event Time Altitude Azimuth Distance (km) Brightness Sun altitude
Rises 18:35:01 0° 285° (WNW) 2,826 ? -13.6°
Reaches altitude 10° 18:37:25 10° 277° (W) 1,922 ? -14.0°
Maximum altitude 18:41:28 36° 210° (SSW) 938 ? -14.7°
Drops below altitude 10° 18:45:30 10° 144° (SE) 1,924 ? -15.3°
Enters shadow 18:47:13 - 137° (SE) 2,563 ? -15.6°
